Location: Tel Aviv
(32.0670°N, 34.7670°E)
Time: 02:35:45
(UTC+03:00)

Tiros 1 - Pass Details

Date: 25 January 2022
Orbit: 629 x 663 km, 48.4° (Epoch: 26 May)

Event Time Altitude Azimuth Distance (km) Brightness Sun altitude
Rises 05:53:24 0° 300° (WNW) 2,962 - -9.9°
Reaches altitude 10° 05:55:55 10° 291° (WNW) 2,043 - -9.4°
Exits shadow 05:56:18 12° 289° (WNW) 1,911 8.9 -9.3°
Maximum altitude 06:00:07 33° 228° (SW) 1,081 8.1 -8.5°
Drops below altitude 10° 06:04:16 10° 164° (SSE) 2,014 10.2 -7.7°
Sets 06:06:45 0° 155° (SSE) 2,914 11.2 -7.2°
